Time,TemperatureF,DewpointF,PressureIn,WindDirection,WindDirectionDegrees,WindSpeedMPH,WindSpeedGustMPH,Humidity,HourlyPrecipIn,Conditions,Clouds,dailyrainin,SoftwareType,DateUTC
2013-07-06 00:02:00,-999.9,-99.9,30.02,North,32767,-999.0,0.0,255,-99.99,,,0.00,Wunderground v.1.15,2013-07-06 07:02:00,
2013-07-06 00:07:00,-999.9,-99.9,30.02,North,32767,-999.0,0.0,255,-99.99,,,0.00,Wunderground v.1.15,2013-07-06 07:07:00,
2013-07-06 00:17:00,-999.9,-99.9,30.02,North,32767,-999.0,0.0,255,-99.99,,,0.00,Wunderground v.1.15,2013-07-06 07:17:00,
2013-07-06 00:22:00,-999.9,-99.9,30.01,North,32767,-999.0,0.0,255,-99.99,,,0.00,Wunderground v.1.15,2013-07-06 07:22:00,
2013-07-06 00:32:00,-999.9,-99.9,30.01,North,32767,-999.0,0.0,255,-99.99,,,0.00,Wunderground v.1.15,2013-07-06 07:32:00,
2013-07-06 00:42:00,-999.9,-99.9,30.01,North,32767,-999.0,0.0,255,-99.99,,,0.00,Wunderground v.1.15,2013-07-06 07:42:00,
2013-07-06 00:52:00,-999.9,-99.9,30.01,North,32767,-999.0,0.0,255,-99.99,,,0.00,Wunderground v.1.15,2013-07-06 07:52:00,
2013-07-06 00:57:00,-999.9,-99.9,30.01,North,32767,-999.0,0.0,255,-99.99,,,0.00,Wunderground v.1.15,2013-07-06 07:57:00,
2013-07-06 01:07:00,56.5,51.1,30.01,NNW,341,1.0,6.0,82,0.00,,,0.00,Wunderground v.1.15,2013-07-06 08:07:00,
2013-07-06 01:17:00,56.5,51.1,30.00,NE,38,1.0,6.0,82,0.00,,,0.00,Wunderground v.1.15,2013-07-06 08:17:00,
2013-07-06 01:27:00,56.6,51.5,30.01,North,5,3.0,8.0,83,0.00,,,0.00,Wunderground v.1.15,2013-07-06 08:27:00,
2013-07-06 01:37:00,56.7,51.3,30.00,NNE,19,1.0,7.0,82,0.00,,,0.00,Wunderground v.1.15,2013-07-06 08:37:00,
2013-07-06 01:42:00,56.7,51.3,30.00,NE,43,1.0,1.0,82,0.00,,,0.00,Wunderground v.1.15,2013-07-06 08:42:00,
2013-07-06 01:47:00,56.6,51.2,30.00,NNE,22,1.0,4.0,82,0.00,,,0.00,Wunderground v.1.15,2013-07-06 08:47:00,
2013-07-06 01:57:00,56.5,51.1,30.00,NNE,21,2.0,7.0,82,0.00,,,0.00,Wunderground v.1.15,2013-07-06 08:57:00,
2013-07-06 02:07:00,56.4,51.0,30.00,NNW,348,3.0,7.0,82,0.00,,,0.00,Wunderground v.1.15,2013-07-06 09:07:00,
2013-07-06 02:12:00,56.5,51.1,30.00,North,355,3.0,12.0,82,0.00,,,0.00,Wunderground v.1.15,2013-07-06 09:12:00,
2013-07-06 02:22:00,56.4,51.0,30.00,North,5,2.0,5.0,82,0.00,,,0.00,Wunderground v.1.15,2013-07-06 09:22:00,
2013-07-06 02:32:00,56.4,51.0,30.00,NNE,12,2.0,5.0,82,0.00,,,0.00,Wunderground v.1.15,2013-07-06 09:32:00,
2013-07-06 02:42:00,56.3,50.9,30.00,North,355,3.0,9.0,82,0.00,,,0.00,Wunderground v.1.15,2013-07-06 09:42:00,
2013-07-06 02:52:00,56.4,51.0,30.00,NNE,33,3.0,3.0,82,0.00,,,0.00,Wunderground v.1.15,2013-07-06 09:52:00,
2013-07-06 02:57:00,56.3,50.9,30.00,NNE,30,2.0,4.0,82,0.00,,,0.00,Wunderground v.1.15,2013-07-06 09:57:00,
2013-07-06 03:07:00,56.1,50.7,29.99,North,5,2.0,5.0,82,0.00,,,0.00,Wunderground v.1.15,2013-07-06 10:07:00,
2013-07-06 03:17:00,56.0,50.6,30.00,NE,38,2.0,5.0,82,0.00,,,0.00,Wunderground v.1.15,2013-07-06 10:17:00,
2013-07-06 03:27:00,56.0,50.6,29.99,NE,46,2.0,2.0,82,0.00,,,0.00,Wunderground v.1.15,2013-07-06 10:27:00,
2013-07-06 03:37:00,55.9,50.5,29.99,NE,51,1.0,5.0,82,0.00,,,0.00,Wunderground v.1.15,2013-07-06 10:37:00,
2013-07-06 03:47:00,55.9,50.8,29.99,NNE,29,1.0,5.0,83,0.00,,,0.00,Wunderground v.1.15,2013-07-06 10:47:00,
2013-07-06 03:57:00,55.8,50.7,29.98,North,11,2.0,6.0,83,0.00,,,0.00,Wunderground v.1.15,2013-07-06 10:57:00,
2013-07-06 04:07:00,55.7,50.6,29.98,NNE,19,2.0,8.0,83,0.00,,,0.00,Wunderground v.1.15,2013-07-06 11:07:00,
2013-07-06 04:12:00,55.7,50.6,29.98,NNE,23,2.0,6.0,83,0.00,,,0.00,Wunderground v.1.15,2013-07-06 11:12:00,
2013-07-06 04:22:00,55.7,50.6,29.98,NNE,22,3.0,3.0,83,0.00,,,0.00,Wunderground v.1.15,2013-07-06 11:22:00,
2013-07-06 04:32:00,55.7,50.6,29.99,NNE,26,2.0,7.0,83,0.00,,,0.00,Wunderground v.1.15,2013-07-06 11:32:00,
2013-07-06 04:37:00,55.7,50.6,29.99,NNE,26,2.0,7.0,83,0.00,,,0.00,Wunderground v.1.15,2013-07-06 11:37:00,
2013-07-06 04:47:00,55.6,50.5,29.99,NNE,26,0.0,4.0,83,0.00,,,0.00,Wunderground v.1.15,2013-07-06 11:47:00,
2013-07-06 04:57:00,55.4,50.3,29.99,NE,36,0.0,6.0,83,0.00,,,0.00,Wunderground v.1.15,2013-07-06 11:57:00,
2013-07-06 05:02:00,55.3,50.5,29.99,NE,36,1.0,1.0,84,0.00,,,0.00,Wunderground v.1.15,2013-07-06 12:02:00,
2013-07-06 05:12:00,55.2,50.4,29.99,NE,34,1.0,1.0,84,0.00,,,0.00,Wunderground v.1.15,2013-07-06 12:12:00,
2013-07-06 05:17:00,55.1,50.4,29.99,NE,34,0.0,4.0,84,0.00,,,0.00,Wunderground v.1.15,2013-07-06 12:17:00,
2013-07-06 05:27:00,54.9,50.2,29.98,NE,34,0.0,2.0,84,0.00,,,0.00,Wunderground v.1.15,2013-07-06 12:27:00,
2013-07-06 05:37:00,54.8,50.4,29.99,North,350,0.0,7.0,85,0.00,,,0.00,Wunderground v.1.15,2013-07-06 12:37:00,
2013-07-06 05:42:00,54.7,50.3,29.99,North,350,1.0,1.0,85,0.00,,,0.00,Wunderground v.1.15,2013-07-06 12:42:00,
2013-07-06 05:52:00,54.7,50.3,29.99,North,355,0.0,3.0,85,0.00,,,0.00,Wunderground v.1.15,2013-07-06 12:52:00,
2013-07-06 06:02:00,54.8,50.4,29.99,North,360,0.0,1.0,85,0.00,,,0.00,Wunderground v.1.15,2013-07-06 13:02:00,
2013-07-06 06:12:00,55.0,50.6,29.99,NNE,22,0.0,4.0,85,0.00,,,0.00,Wunderground v.1.15,2013-07-06 13:12:00,
2013-07-06 06:22:00,55.3,51.2,29.99,NNE,28,1.0,1.0,86,0.00,,,0.00,Wunderground v.1.15,2013-07-06 13:22:00,
2013-07-06 06:32:00,55.9,51.5,29.99,NNE,28,0.0,1.0,85,0.00,,,0.00,Wunderground v.1.15,2013-07-06 13:32:00,
2013-07-06 06:42:00,55.9,51.1,29.99,NNE,28,1.0,4.0,84,0.00,,,0.00,Wunderground v.1.15,2013-07-06 13:42:00,
2013-07-06 06:52:00,55.3,50.9,29.99,NE,34,0.0,1.0,85,0.00,,,0.00,Wunderground v.1.15,2013-07-06 13:52:00,
2013-07-06 07:02:00,55.6,51.2,29.99,North,360,1.0,1.0,85,0.00,,,0.00,Wunderground v.1.15,2013-07-06 14:02:00,
2013-07-06 07:12:00,56.5,52.4,29.99,North,360,0.0,2.0,86,0.00,,,0.00,Wunderground v.1.15,2013-07-06 14:12:00,
2013-07-06 07:17:00,57.3,52.8,29.99,NE,41,1.0,4.0,85,0.00,,,0.00,Wunderground v.1.15,2013-07-06 14:17:00,
2013-07-06 07:27:00,58.1,53.0,29.99,NNE,20,3.0,6.0,83,0.00,,,0.00,Wunderground v.1.15,2013-07-06 14:27:00,
2013-07-06 07:32:00,58.4,52.9,29.99,North,5,3.0,3.0,82,0.00,,,0.00,Wunderground v.1.15,2013-07-06 14:32:00,
2013-07-06 07:37:00,58.5,52.7,29.99,NNE,16,3.0,6.0,81,0.00,,,0.00,Wunderground v.1.15,2013-07-06 14:37:00,
2013-07-06 07:47:00,58.8,53.0,29.99,NNE,27,5.0,5.0,81,0.00,,,0.00,Wunderground v.1.15,2013-07-06 14:47:00,
2013-07-06 07:57:00,59.3,53.1,29.99,NNE,31,5.0,11.0,80,0.00,,,0.00,Wunderground v.1.15,2013-07-06 14:57:00,
2013-07-06 08:02:00,59.4,52.9,29.99,NE,46,5.0,5.0,79,0.00,,,0.00,Wunderground v.1.15,2013-07-06 15:02:00,
2013-07-06 08:12:00,60.0,53.5,29.99,North,350,4.0,4.0,79,0.00,,,0.00,Wunderground v.1.15,2013-07-06 15:12:00,
2013-07-06 08:22:00,60.2,53.7,29.99,NNE,13,3.0,3.0,79,0.00,,,0.00,Wunderground v.1.15,2013-07-06 15:22:00,
2013-07-06 08:32:00,60.7,53.8,29.99,NE,42,5.0,10.0,78,0.00,,,0.00,Wunderground v.1.15,2013-07-06 15:32:00,
2013-07-06 08:42:00,61.0,53.4,29.99,North,355,5.0,5.0,76,0.00,,,0.00,Wunderground v.1.15,2013-07-06 15:42:00,
2013-07-06 08:47:00,61.1,53.8,29.99,NNE,15,4.0,8.0,77,0.00,,,0.00,Wunderground v.1.15,2013-07-06 15:47:00,
2013-07-06 09:02:00,61.3,53.7,29.99,North,355,5.0,11.0,76,0.00,,,0.00,Wunderground v.1.15,2013-07-06 16:02:00,
2013-07-06 09:12:00,61.2,53.9,29.99,NNW,329,3.0,3.0,77,0.00,,,0.00,Wunderground v.1.15,2013-07-06 16:12:00,
2013-07-06 09:22:00,61.5,54.2,29.99,NW,325,3.0,9.0,77,0.00,,,0.00,Wunderground v.1.15,2013-07-06 16:22:00,
2013-07-06 09:32:00,61.0,53.4,29.99,NNE,17,4.0,7.0,76,0.00,,,0.00,Wunderground v.1.15,2013-07-06 16:32:00,
2013-07-06 09:42:00,60.5,52.9,29.99,NNE,13,5.0,5.0,76,0.00,,,0.00,Wunderground v.1.15,2013-07-06 16:42:00,
2013-07-06 09:52:00,60.2,53.0,29.98,NNE,17,5.0,12.0,77,0.00,,,0.00,Wunderground v.1.15,2013-07-06 16:52:00,
2013-07-06 10:02:00,61.2,53.9,29.98,NW,304,5.0,14.0,77,0.00,,,0.00,Wunderground v.1.15,2013-07-06 17:02:00,
2013-07-06 10:12:00,61.3,54.0,29.98,NW,325,4.0,12.0,77,0.00,,,0.00,Wunderground v.1.15,2013-07-06 17:12:00,
2013-07-06 10:27:00,61.6,54.0,29.98,NNW,346,5.0,14.0,76,0.00,,,0.00,Wunderground v.1.15,2013-07-06 17:27:00,
2013-07-06 10:37:00,61.8,53.8,29.99,NE,54,6.0,8.0,75,0.00,,,0.00,Wunderground v.1.15,2013-07-06 17:37:00,
2013-07-06 10:42:00,61.7,54.1,29.99,North,10,5.0,13.0,76,0.00,,,0.00,Wunderground v.1.15,2013-07-06 17:42:00,
2013-07-06 11:07:00,62.3,54.3,29.99,North,5,5.0,15.0,75,0.00,,,0.00,Wunderground v.1.15,2013-07-06 18:07:00,
2013-07-06 11:22:00,62.2,53.8,29.99,North,10,5.0,11.0,74,0.00,,,0.00,Wunderground v.1.15,2013-07-06 18:22:00,
2013-07-06 11:27:00,62.2,53.8,29.99,NNE,18,5.0,16.0,74,0.00,,,0.00,Wunderground v.1.15,2013-07-06 18:27:00,
2013-07-06 11:37:00,62.2,53.8,29.99,NNW,338,7.0,7.0,74,0.00,,,0.00,Wunderground v.1.15,2013-07-06 18:37:00,
2013-07-06 11:42:00,62.5,53.7,29.99,North,10,7.0,7.0,73,0.00,,,0.00,Wunderground v.1.15,2013-07-06 18:42:00,
2013-07-06 11:52:00,62.1,53.7,29.99,North,355,8.0,8.0,74,0.00,,,0.00,Wunderground v.1.15,2013-07-06 18:52:00,
2013-07-06 12:02:00,62.1,53.7,29.99,WNW,300,7.0,7.0,74,0.00,,,0.00,Wunderground v.1.15,2013-07-06 19:02:00,
2013-07-06 12:17:00,62.1,54.1,29.98,North,355,7.0,16.0,75,0.00,,,0.00,Wunderground v.1.15,2013-07-06 19:17:00,
2013-07-06 12:32:00,62.3,53.9,29.98,NW,311,7.0,7.0,74,0.00,,,0.00,Wunderground v.1.15,2013-07-06 19:32:00,
2013-07-06 12:42:00,62.3,53.9,29.98,NNE,28,6.0,6.0,74,0.00,,,0.00,Wunderground v.1.15,2013-07-06 19:42:00,
2013-07-06 12:47:00,62.7,55.0,29.98,North,355,6.0,20.0,76,0.00,,,0.00,Wunderground v.1.15,2013-07-06 19:47:00,
2013-07-06 12:57:00,62.6,54.2,29.98,NNE,13,7.0,16.0,74,0.00,,,0.00,Wunderground v.1.15,2013-07-06 19:57:00,
2013-07-06 13:07:00,63.2,55.1,29.98,NNW,344,5.0,14.0,75,0.00,,,0.00,Wunderground v.1.15,2013-07-06 20:07:00,
2013-07-06 13:17:00,63.3,55.2,29.98,North,5,5.0,15.0,75,0.00,,,0.00,Wunderground v.1.15,2013-07-06 20:17:00,
2013-07-06 13:27:00,62.9,54.9,29.98,North,351,6.0,16.0,75,0.00,,,0.00,Wunderground v.1.15,2013-07-06 20:27:00,
2013-07-06 13:37:00,63.0,55.3,29.98,North,350,6.0,12.0,76,0.00,,,0.00,Wunderground v.1.15,2013-07-06 20:37:00,
2013-07-06 13:47:00,63.1,55.0,29.98,North,360,6.0,18.0,75,0.00,,,0.00,Wunderground v.1.15,2013-07-06 20:47:00,
2013-07-06 13:57:00,63.0,55.3,29.97,NW,323,7.0,19.0,76,0.00,,,0.00,Wunderground v.1.15,2013-07-06 20:57:00,
2013-07-06 14:12:00,63.0,55.3,29.97,West,279,7.0,7.0,76,0.00,,,0.00,Wunderground v.1.15,2013-07-06 21:12:00,
2013-07-06 14:22:00,63.2,55.9,29.97,WNW,298,6.0,6.0,77,0.00,,,0.00,Wunderground v.1.15,2013-07-06 21:22:00,
2013-07-06 14:47:00,63.6,55.9,29.97,NNW,339,6.0,13.0,76,0.00,,,0.00,Wunderground v.1.15,2013-07-06 21:47:00,
2013-07-06 14:57:00,63.0,56.0,29.97,NNW,333,7.0,11.0,78,0.00,,,0.00,Wunderground v.1.15,2013-07-06 21:57:00,
2013-07-06 15:22:00,63.4,56.1,29.96,NW,319,6.0,14.0,77,0.00,,,0.00,Wunderground v.1.15,2013-07-06 22:22:00,
2013-07-06 15:32:00,63.2,55.9,29.96,NE,34,7.0,14.0,77,0.00,,,0.00,Wunderground v.1.15,2013-07-06 22:32:00,
2013-07-06 15:52:00,61.9,55.0,29.96,North,350,8.0,16.0,78,0.00,,,0.00,Wunderground v.1.15,2013-07-06 22:52:00,
2013-07-06 16:07:00,61.3,55.1,29.96,NW,309,7.0,16.0,80,0.00,,,0.00,Wunderground v.1.15,2013-07-06 23:07:00,
2013-07-06 16:17:00,61.6,55.4,29.96,NNE,31,5.0,14.0,80,0.00,,,0.00,Wunderground v.1.15,2013-07-06 23:17:00,
2013-07-06 16:27:00,61.1,55.2,29.96,North,11,7.0,16.0,81,0.00,,,0.00,Wunderground v.1.15,2013-07-06 23:27:00,
2013-07-06 16:37:00,61.2,55.0,29.96,North,360,8.0,16.0,80,0.00,,,0.00,Wunderground v.1.15,2013-07-06 23:37:00,
2013-07-06 16:42:00,61.2,55.3,29.95,NW,318,6.0,14.0,81,0.00,,,0.00,Wunderground v.1.15,2013-07-06 23:42:00,
2013-07-06 17:07:00,60.7,54.8,29.95,NNW,334,7.0,17.0,81,0.00,,,0.00,Wunderground v.1.15,2013-07-07 00:07:00,
2013-07-06 17:17:00,60.8,55.3,29.95,NW,320,6.0,15.0,82,0.00,,,0.00,Wunderground v.1.15,2013-07-07 00:17:00,
2013-07-06 17:22:00,60.8,55.3,29.95,NNW,341,6.0,14.0,82,0.00,,,0.00,Wunderground v.1.15,2013-07-07 00:22:00,
2013-07-06 17:32:00,60.5,55.3,29.95,North,355,6.0,17.0,83,0.00,,,0.00,Wunderground v.1.15,2013-07-07 00:32:00,
2013-07-06 17:37:00,60.7,55.5,29.94,North,5,7.0,19.0,83,0.00,,,0.00,Wunderground v.1.15,2013-07-07 00:37:00,
2013-07-06 17:47:00,60.9,55.4,29.94,WNW,300,8.0,19.0,82,0.00,,,0.00,Wunderground v.1.15,2013-07-07 00:47:00,
2013-07-06 17:57:00,60.9,55.4,29.94,NE,34,9.0,21.0,82,0.00,,,0.00,Wunderground v.1.15,2013-07-07 00:57:00,
2013-07-06 18:22:00,60.7,55.2,29.94,NNE,22,10.0,10.0,82,0.00,,,0.00,Wunderground v.1.15,2013-07-07 01:22:00,
2013-07-06 18:27:00,60.4,54.9,29.93,NNE,12,10.0,22.0,82,0.00,,,0.00,Wunderground v.1.15,2013-07-07 01:27:00,
2013-07-06 18:37:00,60.3,55.1,29.93,NNW,347,9.0,22.0,83,0.00,,,0.00,Wunderground v.1.15,2013-07-07 01:37:00,
2013-07-06 18:52:00,60.0,54.8,29.93,NNW,343,7.0,18.0,83,0.00,,,0.00,Wunderground v.1.15,2013-07-07 01:52:00,
2013-07-06 19:02:00,59.2,54.4,29.93,North,9,8.0,8.0,84,0.00,,,0.00,Wunderground v.1.15,2013-07-07 02:02:00,
2013-07-06 19:22:00,58.8,54.6,29.94,North,5,9.0,9.0,86,0.00,,,0.00,Wunderground v.1.15,2013-07-07 02:22:00,
2013-07-06 19:27:00,58.7,54.5,29.94,North,5,9.0,15.0,86,0.00,,,0.00,Wunderground v.1.15,2013-07-07 02:27:00,
2013-07-06 19:32:00,58.7,54.5,29.94,NNW,344,8.0,16.0,86,0.00,,,0.00,Wunderground v.1.15,2013-07-07 02:32:00,
2013-07-06 19:42:00,58.6,54.4,29.94,NNW,331,8.0,8.0,86,0.00,,,0.00,Wunderground v.1.15,2013-07-07 02:42:00,
2013-07-06 19:52:00,58.2,54.0,29.94,North,355,9.0,17.0,86,0.00,,,0.00,Wunderground v.1.15,2013-07-07 02:52:00,
2013-07-06 20:02:00,58.0,54.2,29.94,North,5,9.0,9.0,87,0.00,,,0.00,Wunderground v.1.15,2013-07-07 03:02:00,
2013-07-06 20:17:00,58.0,54.2,29.94,North,360,9.0,9.0,87,0.00,,,0.00,Wunderground v.1.15,2013-07-07 03:17:00,
2013-07-06 20:27:00,58.0,54.5,29.94,North,355,9.0,17.0,88,0.00,,,0.00,Wunderground v.1.15,2013-07-07 03:27:00,
2013-07-06 20:42:00,57.7,54.2,29.94,NNE,13,8.0,8.0,88,0.00,,,0.00,Wunderground v.1.15,2013-07-07 03:42:00,
2013-07-06 20:47:00,57.7,54.2,29.94,North,5,9.0,15.0,88,0.00,,,0.00,Wunderground v.1.15,2013-07-07 03:47:00,
2013-07-06 21:02:00,57.9,54.4,29.95,NNE,28,8.0,15.0,88,0.00,,,0.00,Wunderground v.1.15,2013-07-07 04:02:00,
2013-07-06 21:07:00,57.9,54.4,29.95,North,5,8.0,15.0,88,0.00,,,0.00,Wunderground v.1.15,2013-07-07 04:07:00,
2013-07-06 21:12:00,57.9,54.4,29.95,North,9,8.0,8.0,88,0.00,,,0.00,Wunderground v.1.15,2013-07-07 04:12:00,
2013-07-06 21:22:00,57.9,54.4,29.95,NNW,330,8.0,8.0,88,0.00,,,0.00,Wunderground v.1.15,2013-07-07 04:22:00,
2013-07-06 21:32:00,58.1,54.6,29.95,NNE,26,7.0,16.0,88,0.00,,,0.00,Wunderground v.1.15,2013-07-07 04:32:00,
2013-07-06 21:37:00,58.2,54.7,29.95,North,360,8.0,16.0,88,0.00,,,0.00,Wunderground v.1.15,2013-07-07 04:37:00,
2013-07-06 21:47:00,58.0,54.5,29.96,North,5,7.0,15.0,88,0.00,,,0.00,Wunderground v.1.15,2013-07-07 04:47:00,
2013-07-06 21:52:00,58.1,54.6,29.96,North,5,7.0,15.0,88,0.00,,,0.00,Wunderground v.1.15,2013-07-07 04:52:00,
2013-07-06 22:02:00,58.1,54.6,29.96,North,355,6.0,6.0,88,0.00,,,0.00,Wunderground v.1.15,2013-07-07 05:02:00,
2013-07-06 22:12:00,57.8,54.3,29.96,NNE,22,5.0,13.0,88,0.00,,,0.00,Wunderground v.1.15,2013-07-07 05:12:00,
2013-07-06 22:22:00,57.8,54.3,29.97,North,355,6.0,19.0,88,0.00,,,0.00,Wunderground v.1.15,2013-07-07 05:22:00,
2013-07-06 22:32:00,57.6,54.1,29.96,NNE,14,5.0,5.0,88,0.00,,,0.00,Wunderground v.1.15,2013-07-07 05:32:00,
2013-07-06 22:37:00,57.5,54.0,29.96,North,9,5.0,13.0,88,0.00,,,0.00,Wunderground v.1.15,2013-07-07 05:37:00,
2013-07-06 22:47:00,57.5,54.0,29.96,North,360,6.0,14.0,88,0.00,,,0.00,Wunderground v.1.15,2013-07-07 05:47:00,
2013-07-06 22:57:00,57.7,54.2,29.96,NNW,337,4.0,6.0,88,0.00,,,0.00,Wunderground v.1.15,2013-07-07 05:57:00,
2013-07-06 23:07:00,57.7,54.2,29.97,North,349,4.0,8.0,88,0.00,,,0.00,Wunderground v.1.15,2013-07-07 06:07:00,
2013-07-06 23:17:00,57.8,54.3,29.97,North,355,4.0,12.0,88,0.00,,,0.00,Wunderground v.1.15,2013-07-07 06:17:00,
2013-07-06 23:27:00,57.8,54.0,29.97,North,5,4.0,10.0,87,0.00,,,0.00,Wunderground v.1.15,2013-07-07 06:27:00,
2013-07-06 23:37:00,57.7,53.9,29.97,North,355,4.0,7.0,87,0.00,,,0.00,Wunderground v.1.15,2013-07-07 06:37:00,
2013-07-06 23:47:00,57.6,53.8,29.97,North,9,5.0,7.0,87,0.00,,,0.00,Wunderground v.1.15,2013-07-07 06:47:00,
2013-07-06 23:57:00,57.6,53.8,29.97,NNE,18,6.0,15.0,87,0.00,,,0.00,Wunderground v.1.15,2013-07-07 06:57:00,